Regional Weather Roundup
Issued by NWS Columbia, SC

Home | Current Version | Previous Version | Text Only | Print | Product List | Glossary On
Versions: 1 2 3 4 5 6 7 8 9 10 11 12 13 14 15 16 17 18 19 20 21 22 23 24 25 26 27 28 29 30 31 32 33 34 35 36 37 38 39 40 41 42 43 44 45 46 47 48 49 50
000
ASUS42 KCAE 122210
RWRCAE
REGIONAL WEATHER ROUNDUP
NATIONAL WEATHER SERVICE COLUMBIA SC
600 PM EDT WED AUG 12 2020

NOTE: "FAIR" INDICATES FEW OR NO CLOUDS BELOW 12,000 FEET WITH NO
SIGNIFICANT WEATHER AND/OR OBSTRUCTIONS TO VISIBILITY.

NOT ALL STATIONS ARE QUALITY CONTROLLED BY THE NATIONAL
WEATHER SERVICE. USE DATA WITH CAUTION...ESPECIALLY
DEWPOINT OBSERVATIONS.

SCZ001>056-GAZ040-063>065-077-122300-
...UPSTATE SOUTH CAROLINA...

CITY           SKY/WX    TMP DP  RH WIND       PRES   REMARKS
ANDERSON       MOSUNNY   91  69  48 SE5       29.95S HX  96
LIBERTY        MOCLDY    90  71  53 CALM      29.96S HX  96
SPARTANBURG    MOSUNNY   84  72  65 CALM      29.98R
CLEMSON        SUNNY     89  69  51 VRB5      29.97R
GREENVILLE     LGT RAIN  82  75  79 E7        30.00R
GREENWOOD      MOSUNNY   85  74  69 SE5       29.96F
GREER          MOSUNNY   85  72  65 E8        30.00R
ROCK HILL      CLOUDY    89  76  65 N5        29.98R HX 100
CHESTER        MOCLDY    86  72  62 CALM      29.98S
LAURENS        CLEAR     81  73  78 CALM      29.96F


...CENTRAL SOUTH CAROLINA...

CITY           SKY/WX    TMP DP  RH WIND       PRES   REMARKS
COLUMBIA APT   CLOUDY    84  72  67 SW3       29.93F
COLUMBIA OWENS CLOUDY    84  72  67 SW3       29.94F
MCENTIRE ANGB  CLOUDY    84  74  73 CALM      29.94S
ORANGEBURG     CLOUDY    80  76  87 S3        29.95R
SUMTER SHAW    LGT RAIN  84  76  76 VRB7      29.94R
NEWBERRY       MOCLDY    86  73  66 CALM      29.98S
AIKEN          FAIR      87  72  62 NE3       29.96S
BARNWELL       FAIR      84  72  65 E5        29.94F
MANNING          N/A     84  75  74 SE3       29.95R
CAMDEN         MOCLDY    88  73  62 CALM      29.94S HX  96
LANCASTER      TSTM      79  73  83 VRB5G14   29.97R
WINNSBORO      CLOUDY    81  73  78 CALM      29.96S


...EASTERN AND COASTAL SOUTH CAROLINA...

CITY           SKY/WX    TMP DP  RH WIND       PRES   REMARKS
MYRTLE BEACH   MOSUNNY   85  78  80 S13       29.95F HX  96
N MYRTLE BCH   MOSUNNY   84  76  76 S10       29.94F
CONWAY         FAIR      86  73  66 S3        29.94S
MARION         FAIR      84  75  74 SE7       29.94S
HARTSVILLE     FAIR      90  73  58 CALM      29.94S HX  98
FLORENCE       MOSUNNY   89  74  60 SE7       29.93S HX  98
DARLINGTON     MOSUNNY   89  76  65 SE7       29.94S HX 100
CHARLESTON APT CLOUDY    84  74  71 S10       29.95R
MOUNT PLEASANT FAIR      84  79  84 S8        29.95R HX  96
WALTERBORO     TSTM      77  73  88 NW7G18    29.98R
BEAUFORT       CLOUDY    87  77  72 SE7       29.94R HX  99
HILTON HEAD    MOSUNNY   84  75  74 S8G15     29.95R


...EASTERN GEORGIA...

CITY           SKY/WX    TMP DP  RH WIND       PRES   REMARKS
AUGUSTA BUSH F MOSUNNY   90  75  61 E7        29.91F HX 100
AUGUSTA DANIEL MOSUNNY   89  73  59 E8        29.94F HX  97
THOMSON        MOSUNNY   95  69  42 CALM      29.92F HX 100
WASHINGTON     FAIR      91  70  49 CALM      29.94F HX  97
CLAXTON        CLOUDY    80  75  85 S3        29.96S THUNDER
SYLVANIA       TSTM      87  77  72 W8        29.95R HX  99
STATESBORO     CLOUDY    85  72  65 SW5       29.96R
SAVANNAH       CLOUDY    84  80  88 W14       29.94R THUNDER HX  97


...SOUTHERN NORTH CAROLINA...

CITY           SKY/WX    TMP DP  RH WIND       PRES   REMARKS
CHARLOTTE      PTSUNNY   85  71  63 NW8       29.99R THUNDER
MONROE         MOSUNNY   90  73  57 VRB5      29.95S HX  98
ROCKINGHAM     CLEAR     89  66  45 SE5       29.95S
ASHEVILLE      PTSUNNY   84  69  60 E6        30.06R

$$



USA.gov is the U.S. government's official web portal to all federal, state and local government web resources and services.